Theta_e
343 351 360 362 364 363 364 363 362 362 361 360 358 357 356 356 354 351 349 349 349 345 343 341 338 336 335 334 333 333 332 332 332 336 344 350 352 352 354 354 353 351 353
344 352 359 360 363 363 363 363 362 361 361 360 359 357 355 354 352 350 348 346 346 342 341 338 337 336 336 335 335 334 333 332 332 330 328 340 349 349 351 353 354 350 353
345 352 355 359 361 363 362 362 361 360 360 361 360 357 355 354 352 349 348 346 343 341 339 338 338 338 337 336 335 335 334 335 335 335 333 324 341 349 351 353 352 351 353
348 351 351 357 360 361 361 361 360 360 360 360 360 357 355 353 351 348 346 344 341 340 340 339 338 338 338 337 336 336 335 336 339 340 333 331 336 349 351 352 351 351 351
346 349 350 357 358 360 361 360 360 360 360 360 360 357 356 353 352 350 347 345 341 340 340 340 339 339 339 339 338 337 338 340 344 343 338 332 327 347 350 352 351 350 350
344 345 353 356 356 359 360 360 360 360 360 360 360 358 356 354 352 350 347 346 344 342 341 341 340 340 340 341 341 341 341 343 345 339 336 337 336 349 349 352 350 350 350
339 342 352 356 355 357 359 359 359 359 359 360 360 358 356 355 352 349 347 345 344 343 343 342 342 344 344 343 343 344 343 345 342 338 334 334 335 349 348 350 351 350 350
337 344 350 355 354 354 355 357 357 358 358 359 359 357 356 355 352 350 348 347 347 347 347 346 346 346 347 347 347 347 346 346 341 333 332 331 339 349 346 346 349 351 349
340 345 348 350 352 354 352 353 355 355 355 356 356 355 355 354 352 350 349 348 348 348 348 348 347 348 348 347 347 348 346 344 336 333 334 331 345 348 344 346 349 351 350
342 342 346 348 348 347 347 353 352 352 352 353 353 353 353 352 351 350 347 348 348 349 348 348 348 348 348 348 348 348 345 345 337 335 333 333 346 345 343 346 349 352 351
341 339 342 345 345 346 346 348 351 352 351 351 350 351 348 343 344 344 346 345 348 348 349 349 348 348 348 348 348 346 346 338 336 334 332 340 347 345 345 347 349 352 352
339 341 339 343 344 343 346 345 344 344 344 343 342 342 341 337 338 342 344 347 347 348 348 349 349 348 346 340 340 345 340 338 337 335 333 345 348 346 345 346 347 349 351
341 342 341 338 340 340 340 343 342 341 341 340 339 338 338 338 337 339 335 340 338 344 338 343 343 343 339 338 338 336 338 338 337 335 335 349 349 348 346 345 345 346 349
340 342 342 339 337 336 336 340 340 339 339 340 339 337 337 335 333 332 333 333 333 334 334 334 336 338 338 339 338 336 334 336 336 334 335 347 349 349 347 345 344 345 346
335 341 343 340 337 334 333 336 337 336 336 336 337 337 336 335 332 332 330 330 333 330 334 332 334 335 337 338 338 336 335 335 337 335 338 349 347 347 347 345 344 344 345
330 341 342 340 338 334 333 335 337 337 336 334 336 336 336 335 333 331 330 329 330 331 333 333 331 332 333 335 334 335 335 336 337 337 338 342 347 346 347 346 345 344 344
330 335 341 341 340 336 335 338 339 339 339 337 336 337 337 335 334 332 330 329 329 330 330 332 329 328 329 332 332 333 333 336 338 336 335 338 341 344 345 347 346 344 344
327 331 334 342 338 340 338 339 340 341 340 340 339 339 339 337 335 334 332 330 331 331 330 331 330 326 327 329 330 332 333 334 337 338 337 336 336 336 343 345 344 347 346
326 329 333 333 334 341 343 341 341 342 341 341 341 341 341 340 338 335 335 333 330 331 331 330 330 328 325 327 330 331 330 332 334 338 336 334 333 334 334 340 343 343 344
325 326 332 334 337 338 341 345 343 342 341 339 342 342 342 342 340 336 337 334 334 330 331 330 328 329 327 328 331 330 329 333 331 331 333 335 332 333 332 333 333 335 342
323 325 325 326 337 343 343 340 340 341 341 342 342 341 341 344 342 338 336 336 336 333 332 332 329 327 326 327 323 323 325 329 329 329 329 329 330 332 332 332 330 332 334
320 326 327 329 340 345 344 343 338 341 336 340 342 340 340 343 344 341 338 337 337 336 332 331 330 326 326 325 321 321 321 320 323 327 328 329 327 329 331 331 331 331 331
318 326 329 330 339 344 342 338 328 329 328 329 330 330 333 340 345 343 341 339 338 337 334 331 331 328 324 324 327 325 319 317 314 320 324 325 326 326 327 328 330 331 331
318 324 328 329 335 337 334 332 329 325 322 325 324 332 334 341 344 343 341 339 337 336 333 333 333 327 325 325 329 329 324 320 316 312 319 322 324 325 325 324 326 330 330
315 321 324 325 326 329 329 328 327 322 324 325 329 333 335 338 342 343 341 338 337 336 334 334 330 329 332 328 327 322 321 321 321 314 310 315 320 322 324 324 323 326 328
315 322 325 325 326 326 327 326 324 324 325 327 328 331 334 335 338 340 340 339 338 336 336 336 332 329 328 327 325 323 324 319 316 315 312 313 313 318 320 322 323 324 323
Wind_Speed
8 14 19 17 21 21 20 18 17 16 15 16 15 15 15 15 15 16 15 14 13 13 12 11 9 8 8 7 6 6 5 4 5 5 6 6 7 5 6 7 9 9 12
22 17 20 19 22 23 22 20 18 16 15 15 15 15 14 15 15 14 14 14 12 12 11 10 9 8 7 6 6 5 4 3 4 4 3 4 4 4 4 6 10 7 12
20 17 17 19 22 23 22 20 19 18 16 15 15 15 14 14 14 14 12 13 12 12 12 10 10 9 8 6 5 3 2 1 2 2 1 1 1 5 5 8 10 10 10
19 16 15 20 22 23 22 21 19 19 17 17 16 15 14 13 13 12 11 11 11 12 11 11 9 8 8 6 5 4 2 1 2 1 1 3 5 5 6 9 10 10 10
17 16 15 22 23 24 23 22 20 20 19 18 17 16 15 14 14 12 11 10 11 11 10 10 9 8 7 6 4 3 1 1 4 3 2 5 6 8 9 10 10 11 12
17 16 18 21 22 25 23 23 21 20 19 19 18 17 16 15 14 12 12 11 11 11 11 10 10 9 8 6 5 4 2 3 5 4 3 1 5 11 11 12 11 12 13
15 13 15 20 22 24 24 23 23 22 20 19 19 18 18 15 14 13 12 12 12 12 12 11 10 9 8 7 6 5 4 6 4 3 5 1 6 11 12 11 11 12 13
20 15 15 20 22 23 23 23 22 21 21 19 18 17 17 16 15 14 13 12 13 12 12 11 10 9 8 7 7 7 6 7 5 3 4 3 7 11 12 11 11 13 13
14 15 13 13 16 20 22 21 20 20 20 19 18 17 17 16 15 14 14 13 13 13 12 11 11 11 9 8 8 7 7 9 6 1 5 3 11 11 12 11 11 14 15
11 13 11 10 10 10 12 19 19 18 19 18 18 17 16 16 15 16 15 14 15 14 13 12 12 11 10 9 9 8 8 10 5 3 4 3 11 13 12 11 11 12 16
8 10 9 9 8 8 9 12 16 18 17 17 16 17 13 7 9 12 13 15 15 15 14 13 12 11 10 10 9 10 9 2 5 3 3 9 14 16 14 12 10 9 16
12 11 12 11 11 8 8 8 8 9 8 8 7 8 6 7 7 9 11 16 15 15 14 13 13 12 11 4 3 9 2 3 4 4 3 11 17 16 14 13 11 9 14
16 11 13 13 11 12 9 6 4 4 4 5 8 7 6 5 5 6 3 5 5 13 5 8 7 5 5 4 4 4 4 4 4 3 6 12 15 15 15 13 12 11 7
17 17 15 16 15 14 8 8 7 7 6 6 8 9 6 5 5 5 4 5 5 5 6 5 4 5 6 6 6 6 6 4 4 3 7 15 18 17 16 14 14 12 10
9 10 11 11 13 13 11 8 7 7 7 8 7 8 8 7 7 6 6 6 7 5 6 6 6 6 7 7 7 7 7 6 7 3 3 15 17 16 15 15 16 15 14
10 14 14 12 11 12 11 9 9 9 7 6 7 9 12 9 8 8 7 7 6 7 7 8 8 8 7 6 8 9 8 6 8 5 5 6 18 18 17 18 17 15 15
7 11 14 16 14 12 14 11 9 7 7 7 8 10 12 11 10 9 7 7 7 7 8 7 5 4 4 5 8 7 6 8 7 6 6 4 8 15 15 15 14 14 15
8 13 13 12 12 13 12 9 8 9 8 8 8 7 12 12 11 9 7 8 7 6 7 7 6 4 5 5 6 6 6 5 6 6 5 5 4 5 11 16 15 16 16
10 12 14 13 15 14 10 7 7 7 6 7 6 7 10 12 12 10 8 7 7 6 7 7 6 6 4 4 5 5 5 5 5 4 5 6 7 7 5 10 14 13 14
11 8 13 17 18 18 12 10 4 4 5 5 7 8 9 8 12 11 8 7 9 6 6 5 6 5 4 6 6 6 4 4 4 5 5 4 6 6 5 6 4 6 12
9 15 13 9 13 10 5 4 4 8 5 5 7 9 9 8 10 11 8 8 8 9 10 10 5 6 3 4 4 1 2 4 5 4 2 4 4 5 5 5 5 4 5
9 13 12 14 12 11 10 8 4 8 5 8 8 8 9 9 9 10 10 9 11 7 6 7 6 3 3 4 4 2 1 4 2 4 2 3 5 3 5 6 5 5 6
10 12 14 15 15 15 15 7 3 4 1 3 4 3 6 10 11 12 12 10 9 7 6 5 6 7 4 2 3 5 1 4 1 3 2 3 4 3 4 3 5 7 7
12 11 14 15 15 15 14 12 10 6 6 5 5 4 5 8 10 10 11 9 7 5 6 6 5 4 5 5 1 1 1 5 3 2 3 3 2 3 4 2 4 4 5
11 10 12 12 13 12 12 11 9 6 5 2 3 4 3 5 8 10 10 8 7 5 6 7 6 6 3 4 3 3 2 2 2 3 3 3 2 2 2 3 4 4 5
11 9 12 14 11 10 10 10 10 10 8 5 4 4 4 3 4 8 8 7 6 6 7 6 6 7 6 4 3 4 4 4 3 3 2 3 2 2 1 2 3 3 3
Wind_Direction
173 164 174 164 143 137 136 132 129 127 125 123 123 122 124 124 123 123 123 122 123 128 129 130 129 125 120 118 115 110 107 101 78 67 69 70 73 78 105 131 128 125 120
138 161 172 166 147 142 140 139 137 137 135 133 136 136 136 132 130 131 130 132 136 134 132 133 132 128 122 118 118 120 116 99 81 64 43 56 97 81 56 99 154 138 130
139 158 167 169 151 145 143 144 144 143 144 143 145 146 146 140 139 141 141 144 142 140 142 143 142 141 138 136 132 129 112 84 84 83 50 186 247 134 113 114 122 137 140
144 157 163 173 153 146 146 148 150 148 150 153 153 155 156 149 150 148 151 152 150 152 154 154 152 150 151 154 160 154 139 20 7 23 142 221 208 166 136 134 137 146 148
149 154 166 175 157 147 150 152 155 156 157 157 159 163 164 162 160 160 164 165 164 166 166 163 168 168 166 169 177 193 198 349 321 329 297 218 196 171 156 143 141 154 156
151 158 169 176 160 149 153 155 158 162 162 163 165 169 172 173 170 168 173 177 179 182 179 178 182 183 178 183 203 218 254 301 306 326 337 206 167 172 165 158 157 159 161
155 157 166 177 164 155 157 160 163 165 167 170 170 171 176 176 177 176 182 187 190 195 192 190 191 193 192 197 216 239 275 286 297 327 325 229 171 179 168 159 169 169 174
156 158 167 180 172 162 159 164 167 167 168 172 175 175 178 178 179 182 189 193 200 206 204 200 196 200 201 209 221 230 253 276 287 344 302 225 196 180 171 173 176 178 180
151 153 168 180 176 167 163 167 171 169 170 173 175 179 180 181 182 185 192 199 206 210 211 208 204 204 200 210 230 238 249 267 273 323 287 200 198 183 179 180 181 184 186
143 158 164 170 173 170 169 171 174 175 175 177 178 182 181 184 189 191 192 200 209 210 212 214 211 209 209 212 222 240 253 266 274 280 264 215 197 192 186 189 190 190 188
146 165 164 165 168 169 170 177 178 179 180 183 186 184 182 181 193 198 194 202 210 214 214 217 216 214 212 222 230 245 257 244 267 246 241 229 202 200 192 193 194 190 186
173 179 174 170 171 159 175 177 179 180 178 182 184 187 176 176 188 195 200 206 212 218 220 220 221 216 218 207 231 254 248 233 258 253 249 235 200 204 198 196 196 191 191
187 169 181 178 173 168 180 172 185 180 174 180 183 188 180 179 196 205 177 202 193 220 215 220 223 214 199 199 221 229 241 232 240 224 252 212 198 206 207 199 199 201 199
179 188 181 184 176 183 169 177 186 186 188 189 199 188 177 180 191 203 186 194 182 200 189 198 203 204 198 206 217 227 240 236 235 218 245 225 199 205 207 201 201 204 206
173 173 177 179 179 183 186 178 176 200 198 197 188 190 188 190 193 190 199 190 196 182 187 197 206 208 207 210 222 228 237 235 241 216 227 211 197 206 202 202 202 204 209
162 168 164 180 188 176 180 189 195 188 193 186 195 196 198 194 196 196 202 204 194 196 194 200 203 209 213 205 221 235 235 236 241 205 212 215 203 197 199 201 205 205 212
196 157 175 181 183 187 183 199 187 189 189 193 206 198 199 197 197 194 200 201 199 193 192 201 202 192 190 202 219 227 230 232 244 198 203 191 209 209 209 204 197 208 215
193 175 176 180 190 186 195 186 197 180 193 201 203 202 202 194 198 191 198 199 195 184 190 195 196 195 202 196 217 231 233 225 226 201 184 199 191 217 218 214 203 201 214
220 199 185 179 180 188 193 191 197 183 183 200 196 207 204 198 194 190 204 195 181 183 191 188 200 191 181 193 210 223 230 234 222 180 190 192 212 202 207 235 214 215 214
201 229 196 180 184 183 199 202 185 176 200 201 210 210 202 196 190 194 201 190 182 191 186 181 179 198 174 196 209 220 225 226 213 221 207 202 203 220 197 216 243 219 219
196 203 222 225 200 171 155 161 190 210 203 225 219 211 201 204 191 189 201 188 186 200 197 188 173 176 195 166 113 39 265 232 237 248 234 226 214 213 211 201 208 211 202
203 205 205 207 207 186 189 197 186 193 210 213 212 216 204 198 187 190 188 186 190 185 179 177 162 145 169 170 142 116 229 322 305 263 218 226 217 206 213 216 208 187 198
210 188 203 195 200 197 194 176 84 90 62 156 211 210 220 201 193 188 180 186 186 178 179 177 169 163 151 189 201 143 122 225 347 327 341 236 253 216 243 236 213 190 184
218 192 190 194 192 197 187 184 186 171 181 211 184 191 229 193 180 181 177 171 158 156 169 177 174 161 133 165 123 313 123 141 169 325 338 328 312 218 233 162 202 193 187
236 197 193 192 196 190 184 185 191 188 199 176 167 183 218 185 170 166 164 156 153 165 178 173 162 150 152 144 147 149 105 88 98 133 245 293 329 288 262 182 189 193 187
248 202 186 175 196 191 188 200 193 189 193 176 188 185 191 165 149 151 152 151 156 165 171 177 165 155 166 145 149 142 151 163 189 152 181 243 229 282 279 181 187 205 177